STARLINK-11475 [DTC] (62226 NORAD) Tracking and Keplerian Element Data

This shows tracking and keplerian element data for the satellite.

Feedback or suggestion? Click here.




ElementValue
Catalog62226
NameSTARLINK-11475 [DTC]
Epoch Orbit1073
Epoch Day34.92858104
Epoch Year2025
RAAN266.8653
Inclination53.1579
Eccentricity0.0001095
Argument of Perigee88.8911
Mean Anonmoly271.2232
Mean Motion15.69736115
Decay Rate-3.11E-05
L11 62226U 24231J 25034.92858104 -.00003110 00000+0 -20797-4 0 9996
L22 62226 53.1579 266.8653 0001095 88.8911 271.2232 15.69736115 10730



Live tracking and technical data element details for STARLINK-11475 [DTC] (NORAD 62226). STARLINK-11475 [DTC] can be tracked NOW for your location showing map with azimuth and elevation plus other details from your city location.







IsCatalogInMostPopularTable: catalog: 62226, numindb: 15
Update: records affected: 1



GetName: 62226 STARLINK-11475 [DTC]

Hit Count: updated at: Mon, 19 May 2025 03:07:19 GMT